Flag for Germany Weather past 2 weeks in Barsinghausen, Lower Saxony, Germany

Now
48 °F

Cool.


Feels Like: 43 °F
Forecast: 43 / 66 °F
Wind: 12 mph from Southwest

Location: Wunstorf Airport

Current Time: May 30, 2015 at 5:17:51 AM

Latest Report: May 30, 2015 at 4:20 AM


Visibility: 4 mi

Pressure: 29.74 "Hg

Humidity: 87%

Dew point: 45 °F

Location of BarsinghausenLocation

Historic Weather in Barsinghausen — Graph

°F

Barsinghausen temperature yesterday

Maximum temperature yesterday: 64 °F (at 5:20 PM)
Minimum temperature yesterday: 39 °F (at 4:20 AM)
Average temperature yesterday: 55 °F

Past Weeks' High & Low Weather Summary

 TemperatureHumidityPressure
High66 °F (May 18, 3:20 PM)94% (May 16, 5:20 PM)30.33 "Hg (May 16, 5:20 PM)
Low37 °F (May 16, 4:20 AM)39% (May 17, 6:20 PM)29.59 "Hg (May 18, 8:20 PM)
Average54 °F68%30.02 "Hg
* Reported May 15 3:20 AM — May 30 3:20 AM, Barsinghausen, Weather by CustomWeather, © 2015

Note: Actual official high and low records may vary slightly from our data, if they occured in-between our weather recording intervals... More about our weather records

Advertising

Barsinghausen weather history for previous 24 hours

 ConditionsComfort  
Time TempWeatherWind HumidityBarometerVisibility
3:20 AM
Sat, May 30
48 °FCool.15 mph87%29.71 "Hg4 mi
2:20 AM48 °FCool.16 mph87%29.71 "Hg5 mi
1:20 AM48 °FCool.12 mph87%29.71 "Hg3 mi
12:20 AM52 °FCool.13 mph77%29.71 "Hg3 mi
11:20 PM
Fri, May 29
59 °FRefreshingly cool.13 mph48%29.68 "Hg6 mi
10:20 PM59 °FRefreshingly cool.12 mph48%29.68 "Hg6 mi
9:20 PM59 °FRefreshingly cool.7 mph55%29.68 "Hg5 mi
8:20 PM61 °FRefreshingly cool.8 mph48%29.68 "Hg6 mi
7:20 PM63 °FMild.12 mph45%29.68 "Hg6 mi
6:20 PM64 °FMild.13 mph43%29.71 "Hg5 mi
5:20 PM64 °FMild.13 mph43%29.71 "Hg6 mi
4:20 PM63 °FMild.16 mph42%29.74 "Hg5 mi
3:20 PM63 °FMild.12 mph59%29.74 "Hg5 mi
2:20 PM61 °FRefreshingly cool.10 mph55%29.77 "Hg6 mi
1:20 PM61 °FRefreshingly cool.8 mph52%29.80 "Hg6 mi
12:20 PM61 °FRefreshingly cool.9 mph48%29.83 "HgN/A
11:55 AM59 °FBroken clouds.10 mph55%29.83 "HgN/A
11:20 AM59 °FPartly sunny.7 mph55%29.86 "HgN/A
10:20 AM57 °FPartly sunny.8 mph59%29.86 "HgN/A
9:20 AM55 °FBroken clouds.7 mph67%29.89 "HgN/A
8:20 AM52 °FPartly sunny.6 mph77%29.89 "HgN/A
7:20 AM46 °FPartly sunny.5 mph87%29.89 "HgN/A
6:20 AM43 °FPartly sunny.2 mph93%29.92 "HgN/A
5:20 AM41 °FPassing clouds.2 mph93%29.92 "HgN/A
Weather by CustomWeather, © 2015

See weather overviewHow to use our weather pages